STAR ONE D2

Last updated on Wed Oct 29 2025 00:02:50 GMT+0000 (Coordinated Universal Time)

1 49055U 21069A 25301.28323456 -.00000254 00000+0 00000+0 0 9995 2 49055 0.0091 231.6710 0002661 331.0847 226.1045 1.00270606 15600
UTC large
Height (km)
Speed (km/s)
/
Latitude / Longitude
Inclination (degrees)
Orbital Period (minutes)
Azimuth
Elevation
Range (km)
Doppler Factor

Next 0 passes for location: London (51.5072 / 0.1276)

Sorry there are no passes over London.